This demonstration page uses our WeatherBlox Daily Observations layout. Learn more.

Left ArrowRight Arrow

38.20091, -84.87328

Hourly Observations for August 11, 2018

Temp ( °F °C ) Dew Point ( °F °C ) Humidity (%) Winds ( mph kmh ) Pressure ( in mb ) Visibility ( mi km ) Precip ( " mm )
12:53 am 00:53 Clear 72 22.2 70 21.1 94 94 SSW 3 6 29.94 1014 7 11 0.00 0.00
1:53 am 01:53 Mostly Cloudy 71 21.7 69 20.6 94 94 Calm 29.95 1014 8 13 0.00 0.00
2:53 am 02:53 Partly Cloudy 72 22.2 70 21.1 94 94 Calm 29.93 1014 7 11 0.00 0.00
3:53 am 03:53 Clear with Mist and Fog 70 21.1 68 20 93 93 E 3 6 29.92 1013 4 6 0.00 0.00
4:03 am 04:03 Mostly Clear with Mist and Fog 70 21.1 69 20.6 97 97 Calm 29.91 1013 5 8 0.00 0.00
4:53 am 04:53 Clear with Mist and Fog 69 20.6 68 20 96 96 Calm 29.91 1013 4 6 0.00 0.00
5:53 am 05:53 Clear with Mist and Fog 70 21.1 68 20 93 93 Calm 29.91 1013 6 10 0.00 0.00
6:43 am 06:43 Clear with Mist and Fog 68 20 67 19.4 96 96 SSW 3 6 29.91 1013 3 4 0.00 0.00
6:50 am 06:50 Clear with Mist and Fog 68 20 66 19 94 94 SW 3 6 29.91 1013 4 6 0.00 0.00
6:53 am 06:53 Sunny with Mist and Fog 68 20 67 19.4 96 96 SW 3 6 29.92 1013 4 6 0.00 0.00
7:53 am 07:53 Mostly Cloudy with Mist and Fog 70 21.1 69 20.6 97 97 Calm 29.94 1014 6 10 0.00 0.00
8:53 am 08:53 Cloudy 73 22.8 70 21.1 90 90 SW 6 9 29.96 1015 8 13 0.00 0.00
9:53 am 09:53 Mostly Sunny 77 25 71 21.7 82 82 WSW 7 11 29.97 1015 9 14 0.00 0.00
10:53 am 10:53 Mostly Cloudy 81 27.2 71 21.7 72 72 SW 10 17 29.97 1015 10 16 0.00 0.00
11:53 am 11:53 Cloudy 81 27.2 70 21.1 69 69 SSW 10 17 29.97 1015 10 16 0.00 0.00
12:53 pm 12:53 Partly Cloudy 83 28.3 71 21.7 67 67 WSW 8 13 29.97 1015 10 16 0.00 0.00
1:53 pm 13:53 Mostly Sunny 85 29.4 70 21.1 61 61 VRB 7 11 29.96 1015 10 16 0.00 0.00
2:53 pm 14:53 Partly Cloudy 84 28.9 71 21.7 65 65 SSW 10 17 29.94 1014 10 16 0.00 0.00
3:53 pm 15:53 Mostly Sunny 86 30 70 21.1 59 59 SW 12 19 29.92 1013 10 16 0.00 0.00
4:53 pm 16:53 Mostly Sunny 86 30 72 22.2 63 63 SW 9 15 29.91 1013 10 16 0.00 0.00
5:53 pm 17:53 Partly Cloudy 85 29.4 72 22.2 65 65 SW 13 20 29.88 1012 10 16 0.00 0.00
6:07 pm 18:07 Partly Cloudy with Nearby Thunderstorms 84 28.9 71 21.7 65 65 SW 12 19 29.88 1012 10 16 0.00 0.00
6:23 pm 18:23 Mostly Cloudy with Thunderstorms 85 29.4 71 21.7 63 63 VRB 5 7 29.88 1012 10 16 0.00 0.00
6:53 pm 18:53 Cloudy with Thunderstorms 77 25 71 21.7 82 82 ESE 13 20 29.92 1013 9 14 0.00 0.03
7:18 pm 19:18 Cloudy with Strong Thunderstorms 71 21.7 68 20 90 90 SE 20 31 29.91 1013 2 2 0.20 5.08
7:22 pm 19:22 Cloudy with Strong Thunderstorms 71 21.7 68 20 90 90 ESE 14 22 29.91 1013 1 1 0.36 9.14
7:29 pm 19:29 Cloudy with Strong Thunderstorms 70 21.1 68 20 93 93 SE 23 37 29.91 1013 1 1 0.54 13.72
7:39 pm 19:39 Cloudy with Strong Thunderstorms 70 21.1 68 20 93 93 VRB 5 7 30.00 1016 1 2 0.67 17.02
7:53 pm 19:53 Cloudy with Strong Thunderstorms 69 20.6 67 19.4 93 93 SE 12 19 29.98 1015 1 1 1.20 30.48
7:57 pm 19:57 Cloudy with Thunderstorms 69 20.6 67 19.4 93 93 ESE 10 17 29.97 1015 2 2 0.00 0.03
7:59 pm 19:59 Cloudy with Thunderstorms 69 20.6 67 19.4 93 93 ESE 9 15 29.97 1015 2 3 0.00 0.03
8:08 pm 20:08 Cloudy with Strong Thunderstorms 69 20.6 67 19.4 93 93 E 7 11 29.97 1015 2 3 0.09 2.29
8:14 pm 20:14 Cloudy with Thunderstorms 69 20.6 67 19.4 93 93 E 10 17 29.97 1015 2 3 0.09 2.29
8:23 pm 20:23 Cloudy with Thunderstorms 69 20.6 67 19.4 93 93 SE 7 11 29.94 1014 7 11 0.10 2.54
8:30 pm 20:30 Cloudy with Light Rain 69 20.6 67 19.4 93 93 SE 8 13 29.94 1014 10 16 0.10 2.54
8:53 pm 20:53 Cloudy 70 21.1 66 18.9 87 87 SW 6 9 29.94 1014 10 16 0.10 2.54
9:53 pm 21:53 Mostly Cloudy 69 20.6 66 18.9 90 90 WNW 3 6 29.96 1015 10 16 0.00 0.00
10:53 pm 22:53 Clear 69 20.6 67 19.4 93 93 NNE 3 6 29.97 1015 10 16 0.00 0.00
11:53 pm 23:53 Clear 68 20 66 18.9 93 93 Calm 29.98 1015 9 14 0.00 0.00

Powered by AerisWeather